Powrót do katalogu

LEGION 4

AktywnyNaukaVLEO
NORAD 60453·PAYLOAD·🇺🇸 United States

Wystrzelony Aug 15, 2024 z Cape Canaveral Space Force Station

Loading…

Następne Przeloty (najbliższe 24 godziny)

TLE

ŚwieżeSource: Space-Track

Epoka: Sep 14, 2026, 14:58 UTC

1 60453U 24146B   26257.62374318  .00003388  00000-0  18659-3 0  9995
2 60453  45.0031   2.8921 0008599  98.2281 261.9573 15.16048208114448

Śledź LEGION 4 w czasie rzeczywistym z AllMySat

Download on the App Store